Regional Weather Roundup
Issued by NWS Wakefield, VA

Home | Current Version | Previous Version | Graphics & Text | Print | Product List | Glossary On
Versions: 1 2 3 4 5 6 7 8 9 10 11 12 13 14 15 16 17 18 19 20 21 22 23 24 25 26 27 28 29 30 31 32 33 34 35 36 37 38 39 40 41 42 43 44 45 46 47 48 49 50
000
ASUS41 KAKQ 230015
RWRAKQ

REGIONAL WEATHER ROUNDUP
NATIONAL WEATHER SERVICE WAKEFIELD VA
800 PM EDT TUE AUG 22 2017

Note: "fair" indicates few or no clouds below 12,000 feet with no
significant weather and/or obstructions to visibility. * = Denotes
station may not report precipitation (e.g., rain,snow,etc.),
thunder or fog.

VAZ042-051-052>054-056-230100-
NORTHERN VIRGINIA

CITY           SKY/WX    TMP DP  RH WIND       PRES   REMARKS
WASH NATIONAL  PTCLDY    87  76  69 S14       29.83F HX  97
DULLES         PTCLDY    85  72  65 S9        29.83F
FORT BELVOIR   CLEAR     84  72  66 SE6       29.83F
QUANTICO       CLEAR     87  76  69 S13       29.84F HX  97
FREDERICKSBRG* CLEAR     86  72  62 S10       29.85S
STAFFORD*      CLEAR     84  71  63 S8G17     29.89F
WARRENTON      CLEAR     85  69  58 S7        29.84S
CULPEPER*      CLEAR     86  73  65 S8        29.84F
MANASSAS*      CLEAR     85  73  67 S8        29.83F
LEESBURG*      CLEAR     86  73  66 S10       29.84F
WINCHESTER     CLOUDY    84  64  51 S5        29.83F
FRONT ROYAL*   CLEAR     86  68  54 S3        29.84S
LURAY*         CLEAR     82  68  61 SW5       29.86S
$$

VAZ048-049-060>072-079>083-230100-
CENTRAL AND SOUTH CENTRAL VIRGINIA

CITY           SKY/WX    TMP DP  RH WIND       PRES   REMARKS
RICHMOND       PTCLDY    83  73  72 S9        29.90S
CHESTERFIELD*  FAIR      83  74  74 S6        29.91S
PETERSBURG*    CLEAR     81  73  75 S3        29.92S
HANOVER        CLEAR     85  69  58 S10       29.90S
TAPPAHANNOCK*  CLEAR     85  64  49 S7        29.90S
QUINTON*       FAIR     N/A N/A N/A CALM      29.90S
CHARLOTTSVILLE CLEAR     89  68  49 SW13      29.86F
GORDONSVILLE*  CLEAR     86  70  58 S5        29.85F
ORANGE*        CLEAR     86  68  54 S7        29.85F
LOUISA*        CLEAR     82  72  69 S6        29.87F
BUMPASS*       FAIR      83  73  72 S5        29.88S
FARMVILLE*     CLEAR     84  63  47 S6        29.89F
CREWE*         FAIR      82  67  60 CALM      29.91S
FORT PICKETT*  FAIR     N/A N/A N/A S5        29.92F
CHASE CITY*    FAIR      83  72  67 CALM      29.92F
CLARKSVILLE*   FAIR      81  73  78 CALM      29.92F
SOUTH HILL*    CLEAR     81  75  82 S6        29.99S
LAWRENCEVILLE* FAIR      81  74  78 CALM      29.93S
EMPORIA*       CLEAR     82  73  74 SE3       29.94S
$$

VAZ088>098-230100-
SOUTHEAST VIRGINIA

CITY           SKY/WX    TMP DP  RH WIND       PRES   REMARKS
NORFOLK        CLEAR     86  76  71 S12       29.92R HX  96
VIRGINIA BEACH PTCLDY    84  72  67 SW12      29.92R
NORFOLK NAVAL  PTCLDY    86  74  67 SW8       29.93S
WEST POINT*    CLEAR     83  73  70 S3        29.92R
SALUDA*        FAIR      82  75  79 S5        29.90S
NEWPORT NEWS   CLEAR     84  72  67 SW8       29.92R
LANGLEY AFB    PTCLDY    85  75  70 S10       29.92R
FORT EUSTIS    CLEAR     86  74  69 S5        29.90R
WILLIAMSBURG*  CLEAR     86  75  70 CALM      29.93R HX  95
HR EXEC AP*    FAIR      82  73  74 SW5       29.90R
FRANKLIN*      CLEAR     83  74  74 S8        29.93S
US460-WAKEFLD  CLEAR     83  76  79 S3        29.92S
$$

VAZ020-022-025-037-045-230100-
WEST CENTRAL AND SOUTHWEST VIRGINIA

CITY           SKY/WX    TMP DP  RH WIND       PRES   REMARKS
STAUNTON*      CLEAR     84  67  57 SW9       29.91S
WAYNESBORO*    CLEAR     83  71  65 S6        29.91F
HOT SPRINGS VA CLEAR     72  57  60 SW9       30.07F
LYNCHBURG      CLEAR     82  67  60 S8        29.91F
DANVILLE       CLEAR     82  73  74 SW3       29.93S
SOUTH BOSTON*  FAIR      83  71  66 CALM      29.92S
MARTINSVILLE   CLEAR     79  71  77 CALM      29.97F
ROANOKE        PTCLDY    86  68  54 S9        29.92F
BLACKSBURG     CLEAR     80  64  59 SW3       30.01F
DUBLIN*        CLEAR     79  61  54 SW7       30.01S
MARION*        CLEAR     78  49  36 CALM      30.07S
HILLSVILLE*    CLEAR     76  63  64 SW3       30.04S
RICHLANDS*     MOCLDY    78  58  50 SW6       30.06S
WISE*          RAIN      72  72 100 CALM      30.08S
ABINGDON*      MOCLDY    81  64  56 W3        30.03R
$$

MDZ021>025-VAZ099-100-230100-
SOUTHERN MARYLAND AND THE DELMARVA PENINSULA

CITY           SKY/WX    TMP DP  RH WIND       PRES   REMARKS
PATUXENT RIVER PTCLDY    83  74  74 S7        29.87S
BAY BRIDGE APT CLEAR     84  75  74 S12       29.84S
LEONARDTOWN    CLEAR     82  72  69 S5        29.89S
DOVER          CLEAR     82  73  74 S13       29.83S
GEORGETOWN     CLEAR     82  75  79 S12       29.88S
EASTON         PTCLDY    86  73  66 S12G20    29.90S
CAMBRIDGE      CLEAR     84  75  74 S9G15     29.87S
SALISBURY      CLEAR     80  77  90 S10       29.89F
OCEAN CITY     PTCLDY    80  77  90 SW14G26   29.91F
WALLOPS ISLAND CLEAR     80  78  94 S13       29.92S
ACCOMACK*      CLEAR     81  78  90 S8        29.92R
$$

NCZ012>017-030>032-230100-
NORTH CENTRAL AND EASTERN NORTH CAROLINA

CITY           SKY/WX    TMP DP  RH WIND       PRES   REMARKS
ROANOKE RAPIDS FAIR      81  75  83 S3        29.93S
RALEIGH        PTCLDY    88  70  55 S8        29.94S
ELIZABETH CITY CLEAR     83  76  79 S10       29.95S
AHOSKIE*         N/A     81  76  86 CALM      29.94R
EDENTON*       CLEAR     84  76  76 S10       29.96S
CURRITUCK*     CLEAR     84  74  72 SW5       29.94F
KILL DEVIL HLS CLEAR     82  74  76 S6        29.95S
MANTEO         CLEAR     83  76  79 SW15      29.96S
CAPE HATTERAS  PTCLDY    83  77  82 SW12      29.99R
TARBORO*       NOT AVBL
GOLDSBORO      CLEAR     83  79  87 S6        29.95S HX  95
WASHINGTON     CLEAR     83  75  78 S10       29.96S
GREENVILLE     CLOUDY    82  73  74 S12       29.97S
NEW BERN       PTCLDY    81  77  88 S7        29.98F
WILMINGTON     CLEAR     83  74  74 SW10      29.99R
$$

VAZ048-230100-
ELSEWHERE

CITY           SKY/WX    TMP DP  RH WIND       PRES   REMARKS
HARRISBURG PA  CLOUDY    87  72  60 VRB7      29.77F THUNDER
BALTIMORE      PTCLDY    86  73  65 S8        29.82S
ANNAPOLIS      CLEAR     87  75  67 S9        29.83S HX  96
ANDREWS AFB    CLEAR     85  70  61 S14       29.84F
PHILADELPHIA   CLOUDY    86  72  62 SW15      29.82F
HENDERSON NC   CLEAR     82  71  71 S3        29.94S
GREENSBORO     CLEAR     85  72  65 SW13      29.95S
ROCKY MOUNT    CLEAR     83  76  79 S5        29.94S
$$

VAZ100-230100-
MARINE

STATION/POSITION TIME  TEMP    WIND        PRES    WAVE   SWELL
                       AIR SEA DIR/SP/G            HT/PER HT/PER
                 (UTC) (F)     (DEG/KT/KT) (MB)    (FT/S) (FT/S)
BRANDYWINE LGT   2342   82     200/ 15/ 17 1011.7R
CAPE MAY NJ      2342   78 80  190/ 13/ 20 1011.0R
LEWES DE         2342   83 77  210/  6/ 11 1011.5R
15NM E FENWICK I 2350   79 78  190/ 19/ 23 1012.6R   4/ 5   2/ 9
OCEAN-CITY-INLET 2342   77 77  210/ 15/ 19 1013.3R
WACHAPREAGUE VA  2342   82 86  200/ 12/ 17 1013.1S
THOMAS POINT MD  0000   85 81  190/ 18/ 20   N/A
GOOSES REEF MD   0000   85 81  190/ 14/ 16 1011.6    1/ 3
COVE POINT MD    2342   85     200/ 13/ 15 1012.1R
SOLOMONS ISLAND  2342   85 82  190/ 11/ 13   N/A
BISHOPS HEAD MD  2342   85 85  180/ 16/ 19 1012.1S
PINEY POINT MD   2342          220/ 11/ 12   N/A
POTOMAC MD       0000   85 84  210/ 10/ 12 1011.3    2/ 3
CAMBRIDGE MD     2336   84 83              1012.4R
LEWISETTA VA     2342   85 86  220/ 11/ 13 1011.8R
RAPPAHANNOCK LGT 2342          160/ 11/ 14 1013.4S
STINGRAY PT      2350   86     240/  8/ 12 1013.2R
YORK RVR RNG VA  2342   86     230/ 11/ 12 1013.3R
YORKTOWN VA      2342   86 84  210/  7/ 10 1012.6R
JAMESTOWN VA     0000      86  210/  4/  6   N/A     0
DOMINION TERM VA 2342   85     210/  9/ 11 1013.4R
KIPTOPEKE VA     2342      83  170/  9/ 11   N/A
CHES BAY BRIDGE  2342   86 81  220/ 11/ 13 1013.1R
CAPE HENRY VA    2342   86     200/  4/  7   N/A
WILLOUBY STN VA  2342   86     230/ 14/ 15 1013.2R
S CRANEY ISL VA  2342   87     210/  7/ 14 1013.1R
CAPE HENRY BUOY  0000      80                N/A     4/10   2/11
1ST LANDING BUOY 0000   85 82              1012.8    2/ 3
64NM E OF VA BCH 2350   81 80  200/ 14/ 16 1014.8R   4/11   3/11
DUCK PIER NC     2342   84 75  200/ 17/ 20 1013.7R
44056 DUCK FRF   2330      80                N/A     3/10   2/11
OREGON INLET NC  2342   83 87  200/ 18/ 21 1014.6F
HATTERAS NC      2342   82 84  220/ 10/ 14 1015.4R
DIAMOND SHLS NC  2350   84 86  210/ 17/ 19 1015.1S   4/ 9   3/ 9
CAPE LOOKOUT NC  0000   83     210/ 12/ 14 1015.1S
$$



USA.gov is the U.S. government's official web portal to all federal, state and local government web resources and services.